Location: *
(49.9853°N, 3.5569°E)
Time: 15:20:40
(UTC+00:00)

SPOT 3 Rocket - Pass Details

Date: 22 September 2019
Orbit: 779 x 794 km, 98.8° (Epoch: 13 October)

Event Time Altitude Azimuth Distance (km) Brightness Sun altitude
Exits shadow 19:49:57 10° 182° (S) 2,348 5.8 -20.3°
Reaches altitude 10° 19:50:00 10° 182° (S) 2,328 5.8 -20.3°
Maximum altitude 19:55:01 53° 259° (W) 958 4.2 -21.0°
Drops below altitude 10° 20:00:04 10° 337° (NNW) 2,347 6.7 -21.7°
Sets 20:02:28 0° 342° (NNW) 3,282 7.5 -22.1°
